Погода в Луговском

Россия / Свердловская область     56°57′32″N   64°31′36″E
темп.,
°C
ветер,
м/с
пор.,
м/с
влажн.,
%
обл.,
%
осадки,
мм/ч
давл.,
гПа
погр.,
м
9 мая, вс
вс923:00+15юз1140100 0.0 101610
02:00+14с1143100 0.0 101510
05:00+13св2245100 0.0 101616
08:00+17в354199 0.0 1016268
11:00+23в362687 0.0 10162574
14:00+24в4721100 0.0 10163364
17:00+23вюв5628100 0.0 10172595
20:00+18в254399 0.0 1019116
10 мая, пн
пн1023:00+15всв2354100 0.0 102056
02:00+14всв3853100 0.0 1021303
05:00+11всв3861100 0.0 1023219
08:00+14всв4746100 0.0 1024543
11:00+17всв463297 0.0 10251313
14:00+20всв462667 0.0 10241651
17:00+20всв452535 0.0 10241810
20:00+16всв25415 0.0 102597
11 мая, вт
вт1123:00+11ю22475 0.0 102625
02:00+10ю12535 0.0 102711
05:00+9ю11565 0.0 102710
08:00+16ю233865 0.0 1028354
11:00+20ююз2327100 0.0 10271562
14:00+21зюз2324100 0.0 10261889
17:00+21з3326100 0.0 10261982
20:00+17з2241100 0.0 102624
12 мая, ср
ср1223:00+13з22465 0.0 102720
02:00+11с3981100 0.0 1028230
05:00+10ссз3883100 0.0 1029277
08:00+12с4751100 0.0 1030521
11:00+16с463037 0.0 10291076
14:00+16ссз5636100 0.0 10291208
17:00+14с3647100 0.0 1029449
20:00+13с2356100 0.0 1028107
13 мая, чт
чт1323:00+10св116715 0.0 102810
02:00+11юз1164100 0.0 102813
05:00+11юз23666 0.0 102766
08:00+13з2362100 0.0 1027196
11:00+20зсз244822 0.0 1026955
14:00+21ссв3650100 0.0 1025647
17:00+22ссв374653 0.0 1025713
20:00+19ссв11565 0.0 102512